Tracking 30970 objects as of 3-Jul-2025
HD Live streaming from Space Station
objects crossing your sky now

USA 450

Track USA 450 now!
10-day predictions


NORAD ID: 62349
Int'l Code: 2024-243K
Perigee: 582.1 km
Apogee: 586.3 km
Inclination: 70.0 °
Period: 96.2 minutes
Semi major axis: 6955 km
RCS: Unknown
Launch date: December 17, 2024
Source: United States (US)
Launch site: AIR FORCE WESTERN TEST RANGE (AFWTR)
Your satellite tracking list
GLOBAL-2
Track 1 satellite(s)




NASA's NSSDC Master Catalog

Two Line Element Set (TLE):
1 62349U 24243K   25178.93420558 0.00000000  00000-0  00000-0 0    01
2 62349  69.9980 107.4807 0003000 102.6353 257.3646 14.96712614    01
Source of the keplerian elements: McCants